Weather in Tofol

The Federated States of Micronesia     5°19′58″N   163°00′00″E
temp.,
°C
wind,
m/s
gust,
m/s
humid.,
%
clouds,
%
prec.,
mm/h
press.,
hPa
HPBL,
m
13 april, tue
tue1301:00+28e4476100 0.1 1008685
04:00+28e3375100 0.2 1008733
07:00+28e4478100 2.4 1010378
10:00+28e4478100 5.7 1009452
13:00+28ene447558 0.8 1006617
16:00+28ene447486 0.8 1006849
19:00+28ene4476100 1.4 1008595
22:00+28ene447434 1.9 1009779
14 april, wed
wed1401:00+28ene347566 0.9 1006627
04:00+27ene3377100 5.6 1007300
07:00+27ene3476100 2.1 1009443
10:00+28e337574 5.0 1009357
13:00+28ene227099 0.6 1006592
16:00+28ene1272100 2.4 1006114
19:00+27ne117393 2.8 1008114
22:00+27nnw1173100 4.8 1009116
15 april, thu
thu1501:00+26sse2178100 0.3 1006233
04:00+26nne1277100 0.7 1007169
07:00+27ne2273100 0.3 1009398
10:00+28ene2272100 0.5 1009492
13:00+28ene2371100 0.3 1006604
16:00+28ene3370100 0.3 1006776
19:00+28e3471100 0.0 1008791
22:00+28e3472100 0.0 1008688
16 april, fri
fri1601:00+28e557493 0.0 1006774
04:00+28e5576100 0.1 1007669
07:00+28ene4577100 0.6 1009669
10:00+28e5578100 2.1 1009522
13:00+27ene5578100 2.1 1006577
16:00+28e667870 5.3 1006627
19:00+27ene668296 6.4 1009393
22:00+27e2380100 8.4 1009227
17 april, sat
sat1701:00+27ene337778 4.3 1007219
04:00+27ne3377100 8.0 1007246
07:00+26ne6588100 5.0 1010282
10:00+25n3287100 8.1 1009177
13:00+26n2282100 0.8 1007195
16:00+27sw117792 1.6 1007235
19:00+27sw007586 0.0 1008296
22:00+27sw227430 0.0 1008403